This is the latest recevied weather packets stored in our database for station/object HP3ICC-23. If no packets are shown the sender has not sent any weather packets the latest 10 day(s).
| Time | Temp. | Humidity | Pressure | Rain* | Wind** | Luminosity | Snow |
|---|---|---|---|---|---|---|---|
| 1777478342 | 19.44° C | 53% | 1012 hPa | 0 mm | - | - | - |
| 1777477201 | 19.44° C | 55% | 1012 hPa | 0 mm | - | - | - |
| 1777477141 | 19.44° C | 55% | 1012 hPa | 0 mm | - | - | - |
| 1777476001 | 18.89° C | 58% | 1012 hPa | 0 mm | - | - | - |
| 1777475940 | 18.89° C | 58% | 1012 hPa | 0 mm | - | - | - |
| 1777474800 | 18.33° C | 55% | 1012 hPa | 0 mm | - | - | - |
| 1777474740 | 18.33° C | 55% | 1012 hPa | 0 mm | - | - | - |
| 1777473599 | 18.33° C | 57% | 1012 hPa | 0 mm | - | - | - |
| 1777473539 | 18.33° C | 57% | 1012 hPa | 0 mm | - | - | - |
| 1777472399 | 17.78° C | 66% | 1012 hPa | 0 mm | - | - | - |
| 1777472339 | 17.78° C | 66% | 1012 hPa | 0 mm | - | - | - |
| 1777471199 | 17.78° C | 58% | 1012 hPa | 0 mm | - | - | - |
| 1777471138 | 17.78° C | 58% | 1012 hPa | 0 mm | - | - | - |
| 1777469998 | 17.78° C | 59% | 1012 hPa | 0 mm | - | - | - |
| 1777469938 | 17.78° C | 59% | 1012 hPa | 0 mm | - | - | - |
| 1777468797 | 15.56° C | 63% | 1011 hPa | 0 mm | - | - | - |
| 1777468737 | 15.56° C | 63% | 1011 hPa | 0 mm | - | - | - |
| 1777467597 | 16.11° C | 62% | 1013 hPa | 0 mm | - | - | - |
| 1777467536 | 16.11° C | 62% | 1013 hPa | 0 mm | - | - | - |
| 1777466396 | 12.78° C | 63% | 1013 hPa | 0 mm | - | - | - |
| 1777466336 | 12.78° C | 63% | 1013 hPa | 0 mm | - | - | - |
| 1777465196 | 13.33° C | 63% | 1013 hPa | 0 mm | - | - | - |
| 1777465136 | 13.33° C | 63% | 1013 hPa | 0 mm | - | - | - |
| 1777463995 | 13.89° C | 62% | 1013 hPa | 0 mm | - | - | - |
| 1777463935 | 13.89° C | 62% | 1013 hPa | 0 mm | - | - | - |
* Rain latest hour (hover to see other rain measurements)
** Current wind speed in m/s (hover to see current wind gust speed)